Weather History for KGWW - August, 2013

Change the Weather History Date:

Wednesday, August 7, 2013

  Actual Average (KGSB) Record (KGSB)
Temperature  
Mean Temperature 76 °F -  
Max Temperature 89 °F 87 °F 100 °F (2007)
Min Temperature 63 °F 68 °F 53 °F (2004)
Cooling Degree Days 11    
Growing Degree Days 26 (Base 50)    
Moisture  
Dew Point 68 °F    
Average Humidity 78    
Maximum Humidity 100    
Minimum Humidity 50    
Precipitation  
Precipitation 0.00 in - - ()
Sea Level Pressure  
Sea Level Pressure 30.08 in    
Wind  
Wind Speed 2 mph (SSE)    
Max Wind Speed 10 mph    
Max Gust Speed 16 mph    
Visibility 9 miles    
Events      
Averages and records for this station are not official NWS values.
T = Trace of Precipitation, MM = Missing Value Source: NWS Daily Summary

Daily Weather History Graph

Daily Weather History Graph

Search for Another Location

Airport or City:

Trip Planner

Search our weather history database for the weather conditions in past years. The results will help you decide how hot, cold, wet, or windy it might be!

Date:

Astronomy

Aug. 07, 2013 Rise Set
Actual Time 6:25 AM EDT 8:09 PM EDT
Civil Twilight 5:57 AM EDT 8:36 PM EDT
Nautical Twilight 5:24 AM EDT 9:10 PM EDT
Astronomical Twilight 4:49 AM EDT 9:45 PM EDT
Moon 7:07 AM EDT (8/7) 8:20 PM EDT (8/7)
Length of Visible Light 14h 39m
Length of Day
13h 44m
New Moon, 1% of the Moon is Illuminated
Aug 7
New Moon
Aug 14
First Quarter
Aug 20
Full
Aug 28
Last Quarter
Sep 5
New

Hourly Weather History & Observations

Time (EDT) Temp. Heat Index Dew Point Humidity Pressure Visibility Wind Dir Wind Speed Gust Speed Precip Events Conditions
12:15 AM 68.0 °F - 66.9 °F 96% 30.08 in 10.0 mi Calm Calm - N/A   Clear
12:35 AM 67.3 °F - 66.4 °F 97% 30.08 in 10.0 mi Calm Calm - N/A   Clear
12:55 AM 67.1 °F - 66.7 °F 99% 30.08 in 10.0 mi Calm Calm - N/A   Clear
1:15 AM 67.1 °F - 66.9 °F 99% 30.08 in 10.0 mi Calm Calm - N/A   Clear
1:35 AM 67.1 °F - 66.7 °F 99% 30.07 in 10.0 mi South 3.5 mph - N/A   Clear
1:55 AM 67.3 °F - 66.6 °F 98% 30.07 in 10.0 mi Calm Calm - N/A   Clear
2:15 AM 66.6 °F - 66.4 °F 99% 30.07 in 7.0 mi Calm Calm - N/A   Clear
2:35 AM 65.5 °F - 65.5 °F 100% 30.07 in 10.0 mi Calm Calm - N/A   Clear
2:55 AM 65.7 °F - 65.7 °F 100% 30.07 in 7.0 mi Calm Calm - N/A   Clear
3:15 AM 65.7 °F - 65.7 °F 100% 30.08 in 7.0 mi Calm Calm - N/A   Clear
3:35 AM 65.3 °F - 65.3 °F 100% 30.08 in 4.0 mi Calm Calm - N/A   Scattered Clouds
3:55 AM 64.9 °F - 64.9 °F 100% 30.08 in 4.0 mi Calm Calm - N/A   Scattered Clouds
4:15 AM 64.9 °F - 64.9 °F 100% 30.08 in 3.0 mi Calm Calm - N/A   Clear
4:35 AM 64.6 °F - 64.6 °F 100% 30.09 in 2.0 mi Calm Calm - N/A   Clear
4:55 AM 63.5 °F - 63.5 °F 100% 30.09 in 3.0 mi Calm Calm - N/A   Clear
5:15 AM 64.2 °F - 64.2 °F 100% 30.09 in 2.0 mi Calm Calm - N/A   Clear
5:35 AM 64.2 °F - 64.2 °F 100% 30.09 in 7.0 mi Calm Calm - N/A   Clear
5:55 AM 64.0 °F - 64.0 °F 100% 30.09 in 4.0 mi Calm Calm - N/A   Clear
6:15 AM 64.4 °F - 64.4 °F 100% 30.10 in 7.0 mi Calm Calm - N/A   Mostly Cloudy
6:35 AM 64.4 °F - 64.4 °F 100% 30.10 in 5.0 mi Calm Calm - N/A   Scattered Clouds
6:55 AM 65.5 °F - 65.5 °F 100% 30.11 in 7.0 mi Calm Calm - N/A   Mostly Cloudy
7:15 AM 67.1 °F - 67.1 °F 100% 30.11 in 7.0 mi Calm Calm - N/A   Mostly Cloudy
7:35 AM 68.9 °F - 68.9 °F 100% 30.11 in 7.0 mi Calm Calm - N/A   Mostly Cloudy
7:55 AM 70.2 °F - 69.8 °F 99% 30.11 in 10.0 mi Calm Calm - N/A   Mostly Cloudy
8:15 AM 72.1 °F - 70.5 °F 95% 30.11 in 7.0 mi SE 3.5 mph - N/A   Overcast
8:35 AM 73.2 °F - 70.7 °F 92% 30.11 in 7.0 mi Calm Calm - N/A   Overcast
8:55 AM 74.3 °F - 71.4 °F 91% 30.12 in 7.0 mi SE 3.5 mph - N/A   Overcast
9:15 AM 75.0 °F - 71.4 °F 89% 30.12 in 7.0 mi Calm Calm - N/A   Overcast
9:35 AM 77.0 °F - 71.2 °F 82% 30.12 in 10.0 mi Calm Calm - N/A   Overcast
9:55 AM 78.8 °F - 70.2 °F 75% 30.11 in 10.0 mi SSE 4.6 mph - N/A   Mostly Cloudy
10:15 AM 81.1 °F 84.2 °F 68.7 °F 66% 30.11 in 10.0 mi South 5.8 mph - N/A   Scattered Clouds
10:35 AM 82.2 °F 84.9 °F 67.5 °F 61% 30.11 in 10.0 mi SSE 5.8 mph - N/A   Clear
10:55 AM 83.3 °F 86.2 °F 67.8 °F 59% 30.11 in 10.0 mi SSE 4.6 mph - N/A   Clear
11:15 AM 81.9 °F 84.4 °F 67.3 °F 61% 30.11 in 10.0 mi SE 3.5 mph - N/A   Scattered Clouds
11:35 AM 82.9 °F 85.6 °F 67.3 °F 59% 30.11 in 10.0 mi SE 4.6 mph - N/A   Mostly Cloudy
11:55 AM 84.7 °F 87.6 °F 67.3 °F 56% 30.11 in 10.0 mi SSE 5.8 mph - N/A   Overcast
12:15 PM 85.1 °F 88.5 °F 68.2 °F 57% 30.10 in 10.0 mi SSE 8.1 mph - N/A   Scattered Clouds
12:35 PM 85.8 °F 89.4 °F 68.4 °F 56% 30.10 in 10.0 mi SE 8.1 mph - N/A   Clear
12:55 PM 87.1 °F 90.9 °F 68.4 °F 54% 30.10 in 10.0 mi SSE 8.1 mph - N/A   Clear
1:15 PM 86.9 °F 90.3 °F 67.8 °F 53% 30.10 in 10.0 mi SSE 5.8 mph - N/A   Clear
1:35 PM 88.2 °F 91.3 °F 67.6 °F 50% 30.10 in 10.0 mi South 8.1 mph - N/A   Scattered Clouds
1:55 PM 87.3 °F 90.5 °F 67.5 °F 52% 30.09 in 10.0 mi ESE 5.8 mph - N/A   Scattered Clouds
2:15 PM 88.9 °F 93.0 °F 68.4 °F 51% 30.08 in 10.0 mi SSE 5.8 mph - N/A   Scattered Clouds
2:35 PM 88.0 °F 91.4 °F 68.0 °F 51% 30.07 in 10.0 mi SSE 10.4 mph 16.1 mph N/A   Scattered Clouds
2:55 PM 87.4 °F 91.2 °F 68.4 °F 53% 30.07 in 10.0 mi SE 8.1 mph - N/A   Scattered Clouds
3:15 PM 89.4 °F 94.0 °F 69.3 °F 51% 30.07 in 10.0 mi SSE 5.8 mph - N/A   Mostly Cloudy
3:35 PM 87.1 °F 91.3 °F 68.9 °F 55% 30.05 in 10.0 mi South 5.8 mph - N/A   Mostly Cloudy
3:55 PM 87.6 °F 91.1 °F 68.2 °F 52% 30.05 in 10.0 mi South 6.9 mph - N/A   Mostly Cloudy
4:15 PM 86.9 °F 91.0 °F 68.9 °F 55% 30.05 in 10.0 mi South 4.6 mph - N/A   Scattered Clouds
4:35 PM 86.4 °F 90.0 °F 68.5 °F 55% 30.05 in 10.0 mi SSE 8.1 mph - N/A   Scattered Clouds
4:55 PM 85.5 °F 89.4 °F 69.3 °F 58% 30.05 in 10.0 mi South 6.9 mph - N/A   Scattered Clouds
5:15 PM 85.6 °F 89.4 °F 68.7 °F 57% 30.05 in 10.0 mi SSE 8.1 mph - N/A   Clear
5:35 PM 84.9 °F 89.4 °F 70.0 °F 61% 30.05 in 10.0 mi SSE 5.8 mph - N/A   Clear
5:55 PM 85.3 °F 89.4 °F 69.4 °F 59% 30.04 in 10.0 mi SE 8.1 mph - N/A   Clear
6:15 PM 84.6 °F 88.2 °F 68.7 °F 59% 30.04 in 10.0 mi SSE 6.9 mph - N/A   Scattered Clouds
6:35 PM 85.1 °F 88.5 °F 68.2 °F 57% 30.05 in 10.0 mi South 5.8 mph - N/A   Clear
6:55 PM 83.7 °F 86.7 °F 67.8 °F 59% 30.05 in 10.0 mi SSE 3.5 mph - N/A   Clear
7:15 PM 83.3 °F 86.4 °F 68.0 °F 60% 30.05 in 10.0 mi South 3.5 mph - N/A   Clear
7:35 PM 81.1 °F 84.2 °F 68.7 °F 66% 30.05 in 10.0 mi SSE 4.6 mph - N/A   Clear
7:55 PM 80.4 °F 83.4 °F 68.9 °F 68% 30.05 in 10.0 mi SSE 4.6 mph - N/A   Clear
8:15 PM 79.7 °F - 69.1 °F 70% 30.06 in 10.0 mi SSE 4.6 mph - N/A   Clear
8:35 PM 78.4 °F - 69.3 °F 73% 30.06 in 10.0 mi SSE 3.5 mph - N/A   Clear
8:55 PM 77.4 °F - 69.3 °F 76% 30.06 in 10.0 mi Calm Calm - N/A   Clear
9:15 PM 75.9 °F - 69.8 °F 81% 30.07 in 10.0 mi Calm Calm - N/A   Clear
9:35 PM 75.9 °F - 70.2 °F 82% 30.07 in 10.0 mi Calm Calm - N/A   Clear
9:55 PM 75.2 °F - 70.5 °F 85% 30.08 in 10.0 mi Calm Calm - N/A   Clear
10:15 PM 75.2 °F - 70.9 °F 86% 30.08 in 10.0 mi SE 3.5 mph - N/A   Clear
10:35 PM 75.0 °F - 71.4 °F 89% 30.08 in 10.0 mi Calm Calm - N/A   Clear
10:55 PM 74.5 °F - 71.6 °F 91% 30.08 in 10.0 mi Calm Calm - N/A   Clear
11:15 PM 74.3 °F - 72.1 °F 93% 30.08 in 10.0 mi South 3.5 mph - N/A   Clear
11:35 PM 74.3 °F - 72.5 °F 94% 30.08 in 10.0 mi Calm Calm - N/A   Clear
11:55 PM 74.3 °F - 72.5 °F 94% 30.08 in 10.0 mi Calm Calm - N/A   Clear